Location: Newark
(45.4422°N, 16.2769°E)
Time: 03:37:45
(UTC+00:00)

Tiros 1 despin weight - All Passes

Search period start: 15 December 2019 00:00
Search period end: 25 December 2019 00:00
Orbit: 594 x 642 km, 48.2° (Epoch: 14 December)

Date Brightness Start Highest point End Pass type
(mag) Time Alt. Az. Time Alt. Az. Time Alt. Az.
15 Dec - 01:12:03 10° S 01:15:26 21° SE 01:18:49 10° E night (unlit)
15 Dec - 02:51:58 10° WSW 02:56:31 73° SSE 03:01:01 10° ENE visible
15 Dec - 04:33:43 10° W 04:38:13 61° N 04:42:39 10° ENE visible
15 Dec - 06:15:32 10° WNW 06:20:03 78° NNE 06:24:30 10° ESE daylight
15 Dec - 07:57:18 10° W 08:01:24 36° SW 08:05:27 10° SSE daylight
16 Dec - 01:27:33 10° SSW 01:31:44 35° SE 01:35:53 10° E night (unlit)
16 Dec - 03:08:30 10° WSW 03:13:05 81° NNW 03:17:36 10° ENE visible
16 Dec - 04:50:25 10° WNW 04:54:55 61° N 04:59:21 10° E visible
16 Dec - 06:32:09 10° WNW 06:36:38 76° SSW 06:41:03 10° ESE daylight
16 Dec - 08:14:20 10° W 08:17:42 21° SW 08:21:02 10° S daylight
17 Dec - 00:04:41 10° S 00:07:15 15° SE 00:09:48 10° E night (unlit)
17 Dec - 01:43:38 10° SW 01:48:08 57° SSE 01:52:36 10° ENE visible
17 Dec - 03:25:11 10° W 03:29:44 66° N 03:34:13 10° ENE visible
17 Dec - 05:07:05 10° WNW 05:11:37 69° NNE 05:16:03 10° E visible
17 Dec - 06:48:47 10° WNW 06:53:07 49° SSW 06:57:22 10° SE daylight
17 Dec - 08:32:27 10° WSW 08:33:51 11° SW 08:35:15 10° SSW daylight
18 Dec - 00:19:38 10° SSW 00:23:28 26° SE 00:27:16 10° E night (unlit)
18 Dec - 02:00:03 10° WSW 02:04:40 85° SSE 02:09:13 10° ENE visible
18 Dec - 03:41:54 10° W 03:46:26 60° N 03:50:53 10° E visible
18 Dec - 05:23:42 10° WNW 05:28:14 88° NNE 05:32:42 10° ESE visible
18 Dec - 07:05:36 10° W 07:09:28 29° SW 07:13:18 10° SSE daylight
19 Dec - 00:35:25 10° SW 00:39:48 43° SSE 00:44:08 10° ENE night (unlit)
19 Dec - 02:16:41 10° W 02:21:16 73° NNW 02:25:48 10° ENE visible
19 Dec - 03:58:36 10° WNW 04:03:08 63° N 04:07:35 10° E visible
19 Dec - 05:40:18 10° WNW 05:44:47 64° SSW 05:49:11 10° SE visible
19 Dec - 07:22:52 10° W 07:25:42 17° SW 07:28:31 10° S daylight
19 Dec - 23:11:58 10° S 23:15:14 19° SE 23:18:29 10° E night (unlit)
20 Dec - 00:51:40 10° WSW 00:56:15 69° SSE 01:00:48 10° ENE night (unlit)
20 Dec - 02:33:23 10° W 02:37:57 62° N 02:42:27 10° ENE visible
20 Dec - 04:15:14 10° WNW 04:19:48 76° NNE 04:24:17 10° E visible
20 Dec - 05:56:59 10° WNW 06:01:12 40° SSW 06:05:21 10° SE visible
20 Dec - 23:27:21 10° SSW 23:31:29 33° SE 23:35:36 10° E night (unlit)
21 Dec - 01:08:10 10° WSW 01:12:49 85° NNW 01:17:24 10° ENE night (unlit)
21 Dec - 02:50:06 10° W 02:54:39 61° N 02:59:07 10° E visible
21 Dec - 04:31:51 10° WNW 04:36:24 81° SSW 04:40:52 10° ESE visible
21 Dec - 06:13:56 10° W 06:17:30 23° SW 06:21:02 10° SSE daylight
21 Dec - 22:04:45 10° SSE 22:07:02 14° SE 22:09:18 10° ESE night (unlit)
21 Dec - 23:43:21 10° SW 23:47:54 53° SSE 23:52:21 10° ENE night (unlit)
22 Dec - 01:24:51 10° W 01:29:27 68° N 01:34:00 10° ENE night (unlit)
22 Dec - 03:06:46 10° WNW 03:11:20 67° N 03:15:49 10° E visible
22 Dec - 04:48:28 10° WNW 04:52:54 53° SSW 04:57:15 10° SE visible
22 Dec - 06:31:41 10° WSW 06:33:41 13° SW 06:35:40 10° SSW daylight
22 Dec - 22:19:29 10° SSW 22:23:13 24° SE 22:26:58 10° E night (unlit)
22 Dec - 23:59:44 10° WSW 00:04:23 81° SSE 00:08:59 10° ENE night (unlit)
23 Dec - 01:41:34 10° W 01:46:09 61° N 01:50:39 10° ENE visible
23 Dec - 03:23:23 10° WNW 03:27:59 84° NNE 03:32:30 10° ESE visible
23 Dec - 05:05:14 10° W 05:09:16 32° SW 05:13:14 10° SSE visible
23 Dec - 22:35:11 10° SW 22:39:33 40° SSE 22:43:53 10° ENE night (unlit)
24 Dec - 00:16:19 10° W 00:20:59 76° NNW 00:25:35 10° ENE night (unlit)
24 Dec - 01:58:16 10° WNW 02:02:51 62° N 02:07:22 10° E visible
24 Dec - 03:39:59 10° WNW 03:44:32 69° SSW 03:49:00 10° ESE visible
24 Dec - 05:22:23 10° W 05:25:31 19° SW 05:28:37 10° S visible
24 Dec - 21:11:54 10° S 21:15:00 18° SE 21:18:06 10° E night (unlit)
24 Dec - 22:51:21 10° SW 22:55:59 65° SSE 23:00:33 10° ENE night (unlit)
